Weather History for KCNU - June, 2013

Change the Weather History Date:

Wednesday, June 12, 2013

  Actual Average Record
Temperature  
Mean Temperature 84 °F 74 °F  
Max Temperature 93 °F 84 °F 106 °F (1953)
Min Temperature 75 °F 64 °F 48 °F (1913)
Degree Days  
Heating Degree Days 0 0  
Month to date heating degree days 10 4  
Since 1 June heating degree days 10 4  
Since 1 July heating degree days 4322 4481  
Cooling Degree Days 19 9  
Month to date cooling degree days 68 90  
Year to date cooling degree days 191 223  
Since 1 June cooling degree days 68 90  
Growing Degree Days 34 (Base 50)    
Moisture  
Dew Point 70 °F    
Average Humidity 64    
Maximum Humidity 82    
Minimum Humidity 46    
Precipitation  
Precipitation 0.00 in 0.21 in 1.79 in (2002)
Month to date precipitation 1.31 2.75  
Year to date precipitation 19.03 19.15  
Sea Level Pressure  
Sea Level Pressure 29.83 in    
Wind  
Wind Speed 16 mph (SSW)    
Max Wind Speed 31 mph    
Max Gust Speed 34 mph    
Visibility 10 miles    
Events      
T = Trace of Precipitation, MM = Missing Value Source: NWS Daily Summary

Daily Weather History Graph

Daily Weather History Graph

Search for Another Location

Airport or City:

Trip Planner

Search our weather history database for the weather conditions in past years. The results will help you decide how hot, cold, wet, or windy it might be!

Date:

Astronomy

Jun. 12, 2013 Rise Set
Actual Time 5:59 AM CDT 8:44 PM CDT
Civil Twilight 5:28 AM CDT 9:15 PM CDT
Nautical Twilight 4:49 AM CDT 9:54 PM CDT
Astronomical Twilight 4:05 AM CDT 10:38 PM CDT
Moon 9:36 AM CDT (6/12) 11:24 PM CDT (6/12)
Length of Visible Light 15h 46m
Length of Day
14h 44m
Waxing Crescent, 14% of the Moon is Illuminated
Jun 12
Waxing Crescent
Jun 16
First Quarter
Jun 23
Full
Jun 29
Last Quarter
Jul 8
New

Hourly Weather History & Observations

Time (CDT) Temp. Heat Index Dew Point Humidity Pressure Visibility Wind Dir Wind Speed Gust Speed Precip Events Conditions
12:52 AM 78.1 °F - 70.0 °F 76% 29.83 in 10.0 mi South 13.8 mph - N/A   Clear
1:52 AM 78.1 °F - 69.1 °F 74% 29.82 in 10.0 mi South 13.8 mph 21.9 mph N/A   Clear
2:52 AM 78.1 °F - 69.1 °F 74% 29.80 in 10.0 mi South 16.1 mph 24.2 mph N/A   Clear
3:52 AM 77.0 °F - 69.1 °F 76% 29.82 in 10.0 mi South 16.1 mph - N/A   Clear
4:52 AM 75.9 °F - 68.0 °F 76% 29.83 in 10.0 mi South 12.7 mph - N/A   Clear
5:52 AM 75.0 °F - 69.1 °F 82% 29.83 in 10.0 mi South 12.7 mph 20.7 mph N/A   Clear
6:52 AM 75.9 °F - 69.1 °F 79% 29.83 in 10.0 mi South 16.1 mph 23.0 mph N/A   Clear
7:52 AM 78.1 °F - 70.0 °F 76% 29.84 in 10.0 mi South 20.7 mph 28.8 mph N/A   Clear
8:52 AM 81.0 °F 84.4 °F 70.0 °F 69% 29.82 in 10.0 mi SSW 23.0 mph 29.9 mph N/A   Clear
9:52 AM 82.9 °F 87.0 °F 70.0 °F 65% 29.81 in 10.0 mi SSW 23.0 mph 32.2 mph N/A   Clear
10:52 AM 86.0 °F 90.1 °F 69.1 °F 57% 29.81 in 10.0 mi SSW 21.9 mph 32.2 mph N/A   Clear
11:52 AM 88.0 °F 92.1 °F 69.1 °F 53% 29.81 in 10.0 mi SSW 27.6 mph 34.5 mph N/A   Clear
12:52 PM 90.0 °F 94.5 °F 69.1 °F 50% 29.82 in 10.0 mi SSW 24.2 mph 34.5 mph N/A   Clear
1:52 PM 91.0 °F 95.6 °F 69.1 °F 48% 29.81 in 10.0 mi WSW 21.9 mph 32.2 mph N/A   Clear
2:52 PM 91.9 °F 98.4 °F 71.1 °F 50% 29.81 in 10.0 mi SW 17.3 mph 26.5 mph N/A   Clear
3:52 PM 93.0 °F 97.9 °F 69.1 °F 45% 29.81 in 10.0 mi SW 23.0 mph 32.2 mph N/A   Clear
4:52 PM 93.0 °F 100.1 °F 71.1 °F 49% 29.80 in 10.0 mi SW 19.6 mph 26.5 mph N/A   Clear
5:52 PM 91.9 °F 97.4 °F 70.0 °F 48% 29.81 in 10.0 mi SW 20.7 mph 29.9 mph N/A   Clear
6:26 PM 91.4 °F 98.4 °F 71.6 °F 52% 29.85 in 10.0 mi SE 31.1 mph 178.4 mph N/A   Squalls
6:52 PM 91.0 °F 97.6 °F 71.1 °F 52% 29.81 in 10.0 mi North - - N/A   Clear
7:52 PM 88.0 °F 94.7 °F 72.0 °F 59% 29.83 in 10.0 mi WSW 6.9 mph - N/A   Clear
8:52 PM 82.9 °F 88.8 °F 73.0 °F 72% 29.84 in 10.0 mi WSW 4.6 mph - N/A   Clear
9:52 PM 82.9 °F 88.0 °F 72.0 °F 69% 29.87 in 10.0 mi SW 6.9 mph - N/A   Clear
10:52 PM 80.1 °F 83.8 °F 72.0 °F 76% 29.88 in 10.0 mi SW 3.5 mph - N/A   Scattered Clouds
11:52 PM 80.1 °F 83.6 °F 71.1 °F 74% 29.88 in 10.0 mi SSW 6.9 mph - N/A   Clear